Year,Month,Day,Hour,Minute,Value (Times are PST for temperature in C)
2015,06,29,00,00,17.20
2015,06,29,00,01,17.20
2015,06,29,00,02,17.20
2015,06,29,00,03,17.20
2015,06,29,00,04,17.10
2015,06,29,00,05,17.10
2015,06,29,00,06,17.10
2015,06,29,00,07,17.10
2015,06,29,00,08,17.10
2015,06,29,00,09,17.10
2015,06,29,00,10,17.10
2015,06,29,00,11,17.00
2015,06,29,00,12,17.00
2015,06,29,00,13,16.90
2015,06,29,00,14,16.90
2015,06,29,00,15,17.10
2015,06,29,00,16,17.40
2015,06,29,00,17,17.70
2015,06,29,00,18,17.80
2015,06,29,00,19,17.70
2015,06,29,00,20,17.60
2015,06,29,00,21,17.50
2015,06,29,00,22,17.40
2015,06,29,00,23,17.50
2015,06,29,00,24,17.80
2015,06,29,00,25,18.10
2015,06,29,00,26,18.50
2015,06,29,00,27,18.70
2015,06,29,00,28,18.90
2015,06,29,00,29,18.90
2015,06,29,00,30,18.60
2015,06,29,00,31,18.20
2015,06,29,00,32,17.90
2015,06,29,00,33,17.70
2015,06,29,00,34,17.60
2015,06,29,00,35,17.60
2015,06,29,00,36,17.50
2015,06,29,00,37,17.60
2015,06,29,00,38,17.70
2015,06,29,00,39,18.00
2015,06,29,00,40,18.20
2015,06,29,00,41,18.50
2015,06,29,00,42,18.60
2015,06,29,00,43,18.60
2015,06,29,00,44,18.60
2015,06,29,00,45,18.70
2015,06,29,00,46,18.70
2015,06,29,00,47,18.60
2015,06,29,00,48,18.50
2015,06,29,00,49,18.30
2015,06,29,00,50,18.20
2015,06,29,00,51,18.10
2015,06,29,00,52,18.10
2015,06,29,00,53,18.10
2015,06,29,00,54,18.20
2015,06,29,00,55,18.20
2015,06,29,00,56,18.30
2015,06,29,00,57,18.40
2015,06,29,00,58,18.40
2015,06,29,00,59,18.20
2015,06,29,01,00,18.10
2015,06,29,01,01,18.00
2015,06,29,01,02,17.90
2015,06,29,01,03,17.90
2015,06,29,01,04,17.90
2015,06,29,01,05,17.90
2015,06,29,01,06,17.80
2015,06,29,01,07,17.70
2015,06,29,01,08,17.60
2015,06,29,01,09,17.60
2015,06,29,01,10,17.60
2015,06,29,01,11,17.50
2015,06,29,01,12,17.40
2015,06,29,01,13,17.50
2015,06,29,01,14,17.50
2015,06,29,01,15,17.40
2015,06,29,01,16,17.50
2015,06,29,01,17,17.60
2015,06,29,01,18,17.60
2015,06,29,01,19,17.50
2015,06,29,01,20,17.40
2015,06,29,01,21,17.40
2015,06,29,01,22,17.50
2015,06,29,01,23,17.50
2015,06,29,01,24,17.50
2015,06,29,01,25,17.50
2015,06,29,01,26,17.60
2015,06,29,01,27,17.50
2015,06,29,01,28,17.50
2015,06,29,01,29,17.60
2015,06,29,01,30,17.60
2015,06,29,01,31,17.70
2015,06,29,01,32,17.80
2015,06,29,01,33,17.90
2015,06,29,01,34,17.90
2015,06,29,01,35,18.00
2015,06,29,01,36,18.10
2015,06,29,01,37,18.10
2015,06,29,01,38,18.20
2015,06,29,01,39,18.20
2015,06,29,01,40,18.30
2015,06,29,01,41,18.30
2015,06,29,01,42,18.40
2015,06,29,01,43,18.50
2015,06,29,01,44,18.50
2015,06,29,01,45,18.60
2015,06,29,01,46,18.70
2015,06,29,01,47,18.70
2015,06,29,01,48,18.70
2015,06,29,01,49,18.80
2015,06,29,01,50,18.80
2015,06,29,01,51,18.70
2015,06,29,01,52,18.50
2015,06,29,01,53,18.40
2015,06,29,01,54,18.00
2015,06,29,01,55,17.80
2015,06,29,01,56,17.50
2015,06,29,01,57,16.90
2015,06,29,01,58,16.40
2015,06,29,01,59,16.30
2015,06,29,02,00,16.10
2015,06,29,02,01,15.80
2015,06,29,02,02,15.40
2015,06,29,02,03,15.10
2015,06,29,02,04,14.90
2015,06,29,02,05,15.10
2015,06,29,02,06,15.00
2015,06,29,02,07,14.70
2015,06,29,02,08,14.60
2015,06,29,02,09,14.70
2015,06,29,02,10,14.60
2015,06,29,02,11,14.40
2015,06,29,02,12,14.30
2015,06,29,02,13,14.30
2015,06,29,02,14,14.30
2015,06,29,02,15,14.40
2015,06,29,02,16,14.40
2015,06,29,02,17,14.40
2015,06,29,02,18,14.70
2015,06,29,02,19,15.00
2015,06,29,02,20,15.40
2015,06,29,02,21,15.70
2015,06,29,02,22,16.00
2015,06,29,02,23,16.30
2015,06,29,02,24,16.80
2015,06,29,02,25,17.20
2015,06,29,02,26,17.50
2015,06,29,02,27,17.70
2015,06,29,02,28,17.80
2015,06,29,02,29,17.90
2015,06,29,02,30,18.00
2015,06,29,02,31,17.90
2015,06,29,02,32,17.90
2015,06,29,02,33,18.00
2015,06,29,02,34,18.10
2015,06,29,02,35,18.10
2015,06,29,02,36,18.20
2015,06,29,02,37,18.30
2015,06,29,02,38,18.40
2015,06,29,02,39,18.50
2015,06,29,02,40,18.50
2015,06,29,02,41,18.50
2015,06,29,02,42,18.60
2015,06,29,02,43,18.60
2015,06,29,02,44,18.60
2015,06,29,02,45,18.70
2015,06,29,02,46,18.70
2015,06,29,02,47,18.80
2015,06,29,02,48,18.90
2015,06,29,02,49,18.90
2015,06,29,02,50,18.90
2015,06,29,02,51,18.90
2015,06,29,02,52,18.90
2015,06,29,02,53,18.90
2015,06,29,02,54,18.90
2015,06,29,02,55,18.90
2015,06,29,02,56,18.90
2015,06,29,02,57,18.90
2015,06,29,02,58,18.90
2015,06,29,02,59,18.90
2015,06,29,03,00,18.90
2015,06,29,03,01,19.00
2015,06,29,03,02,19.10
2015,06,29,03,03,19.10
2015,06,29,03,04,19.20
2015,06,29,03,05,19.10
2015,06,29,03,06,19.00
2015,06,29,03,07,18.80
2015,06,29,03,08,18.80
2015,06,29,03,09,18.80
2015,06,29,03,10,18.70
2015,06,29,03,11,18.70
2015,06,29,03,12,18.70
2015,06,29,03,13,18.80
2015,06,29,03,14,18.90
2015,06,29,03,15,19.00
2015,06,29,03,16,19.00
2015,06,29,03,17,19.00
2015,06,29,03,18,19.00
2015,06,29,03,19,19.00
2015,06,29,03,20,18.90
2015,06,29,03,21,18.80
2015,06,29,03,22,18.80
2015,06,29,03,23,18.70
2015,06,29,03,24,18.60
2015,06,29,03,25,18.40
2015,06,29,03,26,18.20
2015,06,29,03,27,18.00
2015,06,29,03,28,17.80
2015,06,29,03,29,17.70
2015,06,29,03,30,17.70
2015,06,29,03,31,17.60
2015,06,29,03,32,17.70
2015,06,29,03,33,17.70
2015,06,29,03,34,17.70
2015,06,29,03,35,17.70
2015,06,29,03,36,17.70
2015,06,29,03,37,17.60
2015,06,29,03,38,17.60
2015,06,29,03,39,17.70
2015,06,29,03,40,17.80
2015,06,29,03,41,17.90
2015,06,29,03,42,18.00
2015,06,29,03,43,18.00
2015,06,29,03,44,18.20
2015,06,29,03,45,18.30
2015,06,29,03,46,18.30
2015,06,29,03,47,18.30
2015,06,29,03,48,18.40
2015,06,29,03,49,18.40
2015,06,29,03,50,18.50
2015,06,29,03,51,18.60
2015,06,29,03,52,18.60
2015,06,29,03,53,18.70
2015,06,29,03,54,18.70
2015,06,29,03,55,18.80
2015,06,29,03,56,18.80
2015,06,29,03,57,18.80
2015,06,29,03,58,18.80
2015,06,29,03,59,18.80
2015,06,29,04,00,18.80
2015,06,29,04,01,18.80
2015,06,29,04,02,18.80
2015,06,29,04,03,18.80
2015,06,29,04,04,18.80
2015,06,29,04,05,18.80
2015,06,29,04,06,18.80
2015,06,29,04,07,18.80
2015,06,29,04,08,18.80
2015,06,29,04,09,18.90
2015,06,29,04,10,18.90
2015,06,29,04,11,18.90
2015,06,29,04,12,19.00
2015,06,29,04,13,19.00
2015,06,29,04,14,19.10
2015,06,29,04,15,19.10
2015,06,29,04,16,19.20
2015,06,29,04,17,19.20
2015,06,29,04,18,19.30
2015,06,29,04,19,19.30
2015,06,29,04,20,19.30
2015,06,29,04,21,19.30
2015,06,29,04,22,19.40
2015,06,29,04,23,19.40
2015,06,29,04,24,19.40
2015,06,29,04,25,19.40
2015,06,29,04,26,19.50
2015,06,29,04,27,19.50
2015,06,29,04,28,19.60
2015,06,29,04,29,19.60
2015,06,29,04,30,19.70
2015,06,29,04,31,19.70
2015,06,29,04,32,19.80
2015,06,29,04,33,19.80
2015,06,29,04,34,19.90
2015,06,29,04,35,19.90
2015,06,29,04,36,19.90
2015,06,29,04,37,20.00
2015,06,29,04,38,20.10
2015,06,29,04,39,20.10
2015,06,29,04,40,20.10
2015,06,29,04,41,20.00
2015,06,29,04,42,19.90
2015,06,29,04,43,19.80
2015,06,29,04,44,19.60
2015,06,29,04,45,19.40
2015,06,29,04,46,19.20
2015,06,29,04,47,19.10
2015,06,29,04,48,19.00
2015,06,29,04,49,18.80
2015,06,29,04,50,18.70
2015,06,29,04,51,18.50
2015,06,29,04,52,18.30
2015,06,29,04,53,18.10
2015,06,29,04,54,17.90
2015,06,29,04,55,17.70
2015,06,29,04,56,17.50
2015,06,29,04,57,17.30
2015,06,29,04,58,17.10
2015,06,29,04,59,17.00
2015,06,29,05,00,16.90
2015,06,29,05,01,16.80
2015,06,29,05,02,16.80
2015,06,29,05,03,16.70
2015,06,29,05,04,16.60
2015,06,29,05,05,16.60
2015,06,29,05,06,16.60
2015,06,29,05,07,16.60
2015,06,29,05,08,16.60
2015,06,29,05,09,16.50
2015,06,29,05,10,16.40
2015,06,29,05,11,16.30
2015,06,29,05,12,16.20
2015,06,29,05,13,16.10
2015,06,29,05,14,16.00
2015,06,29,05,15,15.90
2015,06,29,05,16,15.90
2015,06,29,05,17,15.80
2015,06,29,05,18,15.80
2015,06,29,05,19,15.80
2015,06,29,05,20,15.80
2015,06,29,05,21,15.80
2015,06,29,05,22,15.90
2015,06,29,05,23,16.00
2015,06,29,05,24,16.20
2015,06,29,05,25,16.20
2015,06,29,05,26,16.30
2015,06,29,05,27,16.40
2015,06,29,05,28,16.50
2015,06,29,05,29,16.60
2015,06,29,05,30,16.70
2015,06,29,05,31,16.80
2015,06,29,05,32,16.80
2015,06,29,05,33,16.80
2015,06,29,05,34,16.90
2015,06,29,05,35,16.90
2015,06,29,05,36,16.90
2015,06,29,05,37,16.90
2015,06,29,05,38,16.80
2015,06,29,05,39,16.70
2015,06,29,05,40,16.50
2015,06,29,05,41,16.40
2015,06,29,05,42,16.20
2015,06,29,05,43,16.00
2015,06,29,05,44,15.80
2015,06,29,05,45,15.70
2015,06,29,05,46,15.60
2015,06,29,05,47,15.50
2015,06,29,05,48,15.40
2015,06,29,05,49,15.30
2015,06,29,05,50,15.30
2015,06,29,05,51,15.20
2015,06,29,05,52,15.20
2015,06,29,05,53,15.20
2015,06,29,05,54,15.10
2015,06,29,05,55,15.10
2015,06,29,05,56,15.10
2015,06,29,05,57,15.10
2015,06,29,05,58,15.10
2015,06,29,05,59,15.20
2015,06,29,06,00,15.10
2015,06,29,06,01,15.10
2015,06,29,06,02,15.00
2015,06,29,06,03,15.00
2015,06,29,06,04,14.90
2015,06,29,06,05,14.80
2015,06,29,06,06,14.80
2015,06,29,06,07,14.70
2015,06,29,06,08,14.60
2015,06,29,06,09,14.50
2015,06,29,06,10,14.40
2015,06,29,06,11,14.30
2015,06,29,06,12,14.20
2015,06,29,06,13,14.10
2015,06,29,06,14,14.00
2015,06,29,06,15,13.90
2015,06,29,06,16,13.90
2015,06,29,06,17,13.80
2015,06,29,06,18,13.80
2015,06,29,06,19,13.70
2015,06,29,06,20,13.70
2015,06,29,06,21,13.70
2015,06,29,06,22,13.60
2015,06,29,06,23,13.60
2015,06,29,06,24,13.60
2015,06,29,06,25,13.60
2015,06,29,06,26,13.60
2015,06,29,06,27,13.60
2015,06,29,06,28,13.60
2015,06,29,06,29,13.60
2015,06,29,06,30,13.60
2015,06,29,06,31,13.60
2015,06,29,06,32,13.60
2015,06,29,06,33,13.70
2015,06,29,06,34,13.70
2015,06,29,06,35,13.80
2015,06,29,06,36,13.80
2015,06,29,06,37,13.90
2015,06,29,06,38,14.00
2015,06,29,06,39,14.10
2015,06,29,06,40,14.20
2015,06,29,06,41,14.10
2015,06,29,06,42,14.00
2015,06,29,06,43,14.00
2015,06,29,06,44,14.00
2015,06,29,06,45,14.00
2015,06,29,06,46,14.00
2015,06,29,06,47,14.00
2015,06,29,06,48,14.00
2015,06,29,06,49,14.10
2015,06,29,06,50,14.10
2015,06,29,06,51,14.10
2015,06,29,06,52,14.10
2015,06,29,06,53,14.10
2015,06,29,06,54,14.00
2015,06,29,06,55,14.00
2015,06,29,06,56,14.10
2015,06,29,06,57,14.10
2015,06,29,06,58,14.20
2015,06,29,06,59,14.20
2015,06,29,07,00,14.20
2015,06,29,07,01,14.20
2015,06,29,07,02,14.20
2015,06,29,07,03,14.40
2015,06,29,07,04,14.60
2015,06,29,07,05,14.70
2015,06,29,07,06,14.70
2015,06,29,07,07,14.70
2015,06,29,07,08,14.80
2015,06,29,07,09,14.90
2015,06,29,07,10,15.00
2015,06,29,07,11,15.20
2015,06,29,07,12,15.40
2015,06,29,07,13,15.70
2015,06,29,07,14,16.00
2015,06,29,07,15,16.30
2015,06,29,07,16,16.60
2015,06,29,07,17,16.80
2015,06,29,07,18,17.00
2015,06,29,07,19,17.10
2015,06,29,07,20,17.10
2015,06,29,07,21,17.20
2015,06,29,07,22,17.30
2015,06,29,07,23,17.50
2015,06,29,07,24,17.70
2015,06,29,07,25,17.80
2015,06,29,07,26,18.00
2015,06,29,07,27,18.00
2015,06,29,07,28,17.80
2015,06,29,07,29,17.00
2015,06,29,07,30,16.50
2015,06,29,07,31,16.20
2015,06,29,07,32,15.80
2015,06,29,07,33,15.50
2015,06,29,07,34,15.00
2015,06,29,07,35,14.60
2015,06,29,07,36,14.30
2015,06,29,07,37,14.20
2015,06,29,07,38,14.20
2015,06,29,07,39,14.20
2015,06,29,07,40,14.20
2015,06,29,07,41,14.30
2015,06,29,07,42,14.40
2015,06,29,07,43,14.70
2015,06,29,07,44,15.00
2015,06,29,07,45,15.10
2015,06,29,07,46,15.30
2015,06,29,07,47,15.40
2015,06,29,07,48,15.50
2015,06,29,07,49,15.60
2015,06,29,07,50,15.70
2015,06,29,07,51,15.70
2015,06,29,07,52,15.80
2015,06,29,07,53,15.80
2015,06,29,07,54,15.90
2015,06,29,07,55,15.90
2015,06,29,07,56,15.90
2015,06,29,07,57,15.90
2015,06,29,07,58,15.90
2015,06,29,07,59,15.90
2015,06,29,08,00,15.80
2015,06,29,08,01,15.80
2015,06,29,08,02,15.80
2015,06,29,08,03,15.80
2015,06,29,08,04,15.80
2015,06,29,08,05,15.80
2015,06,29,08,06,15.60
2015,06,29,08,07,15.40
2015,06,29,08,08,15.20
2015,06,29,08,09,15.20
2015,06,29,08,10,15.20
2015,06,29,08,11,15.20
2015,06,29,08,12,15.20
2015,06,29,08,13,15.10
2015,06,29,08,14,15.00
2015,06,29,08,15,14.90
2015,06,29,08,16,14.80
2015,06,29,08,17,14.80
2015,06,29,08,18,14.80
2015,06,29,08,19,14.70
2015,06,29,08,20,14.60
2015,06,29,08,21,14.50
2015,06,29,08,22,14.40
2015,06,29,08,23,14.40
2015,06,29,08,24,14.30
2015,06,29,08,25,14.20
2015,06,29,08,26,14.10
2015,06,29,08,27,13.90
2015,06,29,08,28,13.90
2015,06,29,08,29,13.80
2015,06,29,08,30,13.80
2015,06,29,08,31,13.70
2015,06,29,08,32,13.70
2015,06,29,08,33,13.70
2015,06,29,08,34,13.70
2015,06,29,08,35,13.70
2015,06,29,08,36,13.60
2015,06,29,08,37,13.60
2015,06,29,08,38,13.50
2015,06,29,08,39,13.50
2015,06,29,08,40,13.50
2015,06,29,08,41,13.40
2015,06,29,08,42,13.40
2015,06,29,08,43,13.40
2015,06,29,08,44,13.40
2015,06,29,08,45,13.40
2015,06,29,08,46,13.40
2015,06,29,08,47,13.40
2015,06,29,08,48,13.40
2015,06,29,08,49,13.50
2015,06,29,08,50,13.50
2015,06,29,08,51,13.50
2015,06,29,08,52,13.50
2015,06,29,08,53,13.50
2015,06,29,08,54,13.50
2015,06,29,08,55,13.60
2015,06,29,08,56,13.60
2015,06,29,08,57,13.70
2015,06,29,08,58,13.70
2015,06,29,08,59,13.70
2015,06,29,09,00,13.70
2015,06,29,09,01,13.70
2015,06,29,09,02,13.80
2015,06,29,09,03,13.80
2015,06,29,09,04,13.80
2015,06,29,09,05,13.80
2015,06,29,09,06,13.80
2015,06,29,09,07,13.80
2015,06,29,09,08,13.90
2015,06,29,09,09,13.90
2015,06,29,09,10,13.90
2015,06,29,09,11,13.90
2015,06,29,09,12,13.90
2015,06,29,09,13,13.90
2015,06,29,09,14,13.90
2015,06,29,09,15,13.90
2015,06,29,09,16,14.00
2015,06,29,09,17,14.00
2015,06,29,09,18,14.00
2015,06,29,09,19,14.00
2015,06,29,09,20,14.00
2015,06,29,09,21,14.00
2015,06,29,09,22,14.00
2015,06,29,09,23,14.10
2015,06,29,09,24,14.10
2015,06,29,09,25,14.10
2015,06,29,09,26,14.10
2015,06,29,09,27,14.10
2015,06,29,09,28,14.10
2015,06,29,09,29,14.10
2015,06,29,09,30,14.10
2015,06,29,09,31,14.10
2015,06,29,09,32,14.10
2015,06,29,09,33,14.10
2015,06,29,09,34,14.20
2015,06,29,09,35,14.20
2015,06,29,09,36,14.20
2015,06,29,09,37,14.30
2015,06,29,09,38,14.30
2015,06,29,09,39,14.30
2015,06,29,09,40,14.40
2015,06,29,09,41,14.40
2015,06,29,09,42,14.40
2015,06,29,09,43,14.50
2015,06,29,09,44,14.50
2015,06,29,09,45,14.60
2015,06,29,09,46,14.70
2015,06,29,09,47,14.80
2015,06,29,09,48,14.90
2015,06,29,09,49,14.80
2015,06,29,09,50,14.80
2015,06,29,09,51,14.70
2015,06,29,09,52,14.70
2015,06,29,09,53,14.70
2015,06,29,09,54,14.60
2015,06,29,09,55,14.60
2015,06,29,09,56,14.50
2015,06,29,09,57,14.50
2015,06,29,09,58,14.40
2015,06,29,09,59,14.40
2015,06,29,10,00,14.30
2015,06,29,10,01,14.30
2015,06,29,10,02,14.30
2015,06,29,10,03,14.20
2015,06,29,10,04,14.20
2015,06,29,10,05,14.20
2015,06,29,10,06,14.20
2015,06,29,10,07,14.20
2015,06,29,10,08,14.10
2015,06,29,10,09,14.10
2015,06,29,10,10,14.10
2015,06,29,10,11,14.10
2015,06,29,10,12,14.10
2015,06,29,10,13,14.10
2015,06,29,10,14,14.10
2015,06,29,10,15,14.10
2015,06,29,10,16,14.10
2015,06,29,10,17,14.10
2015,06,29,10,18,14.10
2015,06,29,10,19,14.10
2015,06,29,10,20,14.10
2015,06,29,10,21,14.10
2015,06,29,10,22,14.10
2015,06,29,10,23,14.10
2015,06,29,10,24,14.10
2015,06,29,10,25,14.10
2015,06,29,10,26,14.10
2015,06,29,10,27,14.10
2015,06,29,10,28,14.10
2015,06,29,10,29,14.10
2015,06,29,10,30,14.10
2015,06,29,10,31,14.10
2015,06,29,10,32,14.10
2015,06,29,10,33,14.10
2015,06,29,10,34,14.10
2015,06,29,10,35,14.10
2015,06,29,10,36,14.10
2015,06,29,10,37,14.10
2015,06,29,10,38,14.10
2015,06,29,10,39,14.10
2015,06,29,10,40,14.10
2015,06,29,10,41,14.10
2015,06,29,10,42,14.10
2015,06,29,10,43,14.10
2015,06,29,10,44,14.10
2015,06,29,10,45,14.10
2015,06,29,10,46,14.10
2015,06,29,10,47,14.10
2015,06,29,10,48,14.10
2015,06,29,10,49,14.10
2015,06,29,10,50,14.10
2015,06,29,10,51,14.10
2015,06,29,10,52,14.10
2015,06,29,10,53,14.10
2015,06,29,10,54,14.00
2015,06,29,10,55,14.00
2015,06,29,10,56,14.00
2015,06,29,10,57,14.00
2015,06,29,10,58,14.00
2015,06,29,10,59,14.10
2015,06,29,11,00,14.10
2015,06,29,11,01,14.10
2015,06,29,11,02,14.00
2015,06,29,11,03,14.00
2015,06,29,11,04,13.90
2015,06,29,11,05,13.90
2015,06,29,11,06,13.90
2015,06,29,11,07,13.90
2015,06,29,11,08,13.80
2015,06,29,11,09,13.80
2015,06,29,11,10,13.80
2015,06,29,11,11,13.80
2015,06,29,11,12,13.80
2015,06,29,11,13,13.80
2015,06,29,11,14,13.80
2015,06,29,11,15,13.70
2015,06,29,11,16,13.70
2015,06,29,11,17,13.70
2015,06,29,11,18,13.70
2015,06,29,11,19,13.70
2015,06,29,11,20,13.70
2015,06,29,11,21,13.70
2015,06,29,11,22,13.70
2015,06,29,11,23,13.60
2015,06,29,11,24,13.60
2015,06,29,11,25,13.60
2015,06,29,11,26,13.60
2015,06,29,11,27,13.60
2015,06,29,11,28,13.60
2015,06,29,11,29,13.60
2015,06,29,11,30,13.60
2015,06,29,11,31,13.60
2015,06,29,11,32,13.60
2015,06,29,11,33,13.60
2015,06,29,11,34,13.60
2015,06,29,11,35,13.60
2015,06,29,11,36,13.60
2015,06,29,11,37,13.60
2015,06,29,11,38,13.60
2015,06,29,11,39,13.60
2015,06,29,11,40,13.60
2015,06,29,11,41,13.60
2015,06,29,11,42,13.60
2015,06,29,11,43,13.60
2015,06,29,11,44,13.60
2015,06,29,11,45,13.60
2015,06,29,11,46,13.60
2015,06,29,11,47,13.60
2015,06,29,11,48,13.60
2015,06,29,11,49,13.60
2015,06,29,11,50,13.60
2015,06,29,11,51,13.60
2015,06,29,11,52,13.60
2015,06,29,11,53,13.60
2015,06,29,11,54,13.60
2015,06,29,11,55,13.60
2015,06,29,11,56,13.60
2015,06,29,11,57,13.60
2015,06,29,12,13,13.40
2015,06,29,12,14,13.40
2015,06,29,12,15,13.40
2015,06,29,12,16,13.40
2015,06,29,12,17,13.50
2015,06,29,12,18,13.50
2015,06,29,12,19,13.50
2015,06,29,12,20,13.50
2015,06,29,12,21,13.50
2015,06,29,12,22,13.60
2015,06,29,12,23,13.60
2015,06,29,12,24,13.60
2015,06,29,12,25,13.60
2015,06,29,12,26,13.60
2015,06,29,12,27,13.60
2015,06,29,12,28,13.50
2015,06,29,12,29,13.60
2015,06,29,12,30,13.60
2015,06,29,12,31,13.60
2015,06,29,12,32,13.50
2015,06,29,12,33,13.50
2015,06,29,12,34,13.50
2015,06,29,12,35,13.50
2015,06,29,12,36,13.50
2015,06,29,12,37,13.50
2015,06,29,12,38,13.50
2015,06,29,12,39,13.60
2015,06,29,12,40,13.60
2015,06,29,12,41,13.60
2015,06,29,12,42,13.70
2015,06,29,12,43,13.70
2015,06,29,12,44,13.70
2015,06,29,12,45,13.70
2015,06,29,12,46,13.70
2015,06,29,12,47,13.80
2015,06,29,12,48,13.80
2015,06,29,12,49,13.80
2015,06,29,12,50,13.80
2015,06,29,12,51,13.80
2015,06,29,12,52,13.80
2015,06,29,12,53,13.70
2015,06,29,12,54,13.70
2015,06,29,12,55,13.70
2015,06,29,12,56,13.70
2015,06,29,12,57,13.70
2015,06,29,12,58,13.70
2015,06,29,12,59,13.70
2015,06,29,13,00,13.60
2015,06,29,13,01,13.60
2015,06,29,13,02,13.50
2015,06,29,13,03,13.40
2015,06,29,13,04,13.40
2015,06,29,13,05,13.30
2015,06,29,13,06,13.30
2015,06,29,13,07,13.30
2015,06,29,13,08,13.30
2015,06,29,13,09,13.30
2015,06,29,13,10,13.30
2015,06,29,13,11,13.40
2015,06,29,13,12,13.40
2015,06,29,13,13,13.40
2015,06,29,13,14,13.50
2015,06,29,13,15,13.60
2015,06,29,13,16,13.60
2015,06,29,13,17,13.50
2015,06,29,13,18,13.50
2015,06,29,13,19,13.40
2015,06,29,13,20,13.40
2015,06,29,13,21,13.40
2015,06,29,13,22,13.40
2015,06,29,13,23,13.40
2015,06,29,13,24,13.40
2015,06,29,13,25,13.40
2015,06,29,13,26,13.40
2015,06,29,13,27,13.40
2015,06,29,13,28,13.40
2015,06,29,13,29,13.40
2015,06,29,13,30,13.30
2015,06,29,13,31,13.30
2015,06,29,13,32,13.30
2015,06,29,13,33,13.40
2015,06,29,13,34,13.40
2015,06,29,13,35,13.40
2015,06,29,13,36,13.40
2015,06,29,13,37,13.40
2015,06,29,13,38,13.50
2015,06,29,13,39,13.60
2015,06,29,13,40,13.60
2015,06,29,13,41,13.60
2015,06,29,13,42,13.70
2015,06,29,13,43,13.70
2015,06,29,13,44,13.70
2015,06,29,13,45,13.70
2015,06,29,13,46,13.80
2015,06,29,13,47,13.90
2015,06,29,13,48,13.90
2015,06,29,13,49,13.90
2015,06,29,13,50,14.10
2015,06,29,13,51,14.20
2015,06,29,13,52,14.40
2015,06,29,13,53,14.40
2015,06,29,13,54,14.40
2015,06,29,13,55,14.50
2015,06,29,13,56,14.50
2015,06,29,13,57,14.70
2015,06,29,13,58,14.90
2015,06,29,13,59,14.90
2015,06,29,14,00,15.10
2015,06,29,14,01,15.30
2015,06,29,14,02,15.80
2015,06,29,14,03,16.30
2015,06,29,14,04,16.90
2015,06,29,14,05,17.20
2015,06,29,14,06,17.50
2015,06,29,14,07,17.70
2015,06,29,14,08,17.70
2015,06,29,14,09,17.80
2015,06,29,14,10,17.80
2015,06,29,14,11,17.90
2015,06,29,14,12,17.80
2015,06,29,14,13,17.60
2015,06,29,14,14,17.40
2015,06,29,14,15,17.00
2015,06,29,14,16,16.50
2015,06,29,14,17,16.20
2015,06,29,14,18,16.00
2015,06,29,14,19,15.90
2015,06,29,14,20,15.90
2015,06,29,14,21,16.00
2015,06,29,14,22,16.10
2015,06,29,14,23,16.30
2015,06,29,14,24,16.40
2015,06,29,14,25,16.50
2015,06,29,14,26,16.70
2015,06,29,14,27,16.80
2015,06,29,14,28,17.00
2015,06,29,14,29,17.10
2015,06,29,14,30,17.20
2015,06,29,14,31,17.20
2015,06,29,14,32,17.20
2015,06,29,14,33,17.20
2015,06,29,14,34,16.80
2015,06,29,14,35,16.30
2015,06,29,14,36,15.90
2015,06,29,14,37,16.00
2015,06,29,14,38,16.20
2015,06,29,14,39,16.60
2015,06,29,14,40,17.00
2015,06,29,14,41,17.60
2015,06,29,14,42,18.30
2015,06,29,14,43,19.10
2015,06,29,14,44,19.60
2015,06,29,14,45,19.70
2015,06,29,14,46,20.00
2015,06,29,14,47,20.20
2015,06,29,14,48,20.30
2015,06,29,14,49,20.40
2015,06,29,14,50,20.70
2015,06,29,14,51,20.60
2015,06,29,14,52,20.90
2015,06,29,14,53,21.40
2015,06,29,14,54,21.30
2015,06,29,14,55,21.30
2015,06,29,14,56,21.20
2015,06,29,14,57,20.70
2015,06,29,14,58,20.30
2015,06,29,14,59,20.10
2015,06,29,15,00,20.10
2015,06,29,15,01,19.70
2015,06,29,15,02,19.50
2015,06,29,15,03,19.60
2015,06,29,15,04,19.90
2015,06,29,15,05,20.30
2015,06,29,15,06,20.20
2015,06,29,15,07,20.40
2015,06,29,15,08,20.60
2015,06,29,15,09,20.50
2015,06,29,15,10,20.80
2015,06,29,15,11,20.40
2015,06,29,15,12,19.50
2015,06,29,15,13,18.50
2015,06,29,15,14,17.50
2015,06,29,15,15,17.00
2015,06,29,15,16,17.00
2015,06,29,15,17,17.10
2015,06,29,15,18,17.00
2015,06,29,15,19,16.60
2015,06,29,15,20,16.30
2015,06,29,15,21,16.00
2015,06,29,15,22,15.70
2015,06,29,15,23,15.40
2015,06,29,15,24,15.00
2015,06,29,15,25,14.90
2015,06,29,15,26,14.80
2015,06,29,15,27,14.80
2015,06,29,15,28,14.80
2015,06,29,15,29,14.80
2015,06,29,15,30,15.00
2015,06,29,15,31,15.10
2015,06,29,15,32,15.10
2015,06,29,15,33,15.10
2015,06,29,15,34,15.10
2015,06,29,15,35,15.10
2015,06,29,15,36,15.20
2015,06,29,15,37,15.30
2015,06,29,15,38,15.40
2015,06,29,15,39,15.50
2015,06,29,15,40,15.40
2015,06,29,15,41,15.30
2015,06,29,15,42,15.30
2015,06,29,15,43,15.30
2015,06,29,15,44,15.30
2015,06,29,15,45,15.30
2015,06,29,15,46,15.30
2015,06,29,15,47,15.40
2015,06,29,15,48,15.40
2015,06,29,15,49,15.40
2015,06,29,15,50,15.50
2015,06,29,15,51,15.50
2015,06,29,15,52,15.40
2015,06,29,15,53,15.30
2015,06,29,15,54,15.20
2015,06,29,15,55,15.20
2015,06,29,15,56,15.10
2015,06,29,15,57,15.10
2015,06,29,15,58,15.10
2015,06,29,15,59,15.10
2015,06,29,16,00,15.10
2015,06,29,16,01,15.10
2015,06,29,16,02,15.00
2015,06,29,16,03,15.00
2015,06,29,16,04,14.90
2015,06,29,16,05,14.80
2015,06,29,16,06,14.70
2015,06,29,16,07,14.60
2015,06,29,16,08,14.50
2015,06,29,16,09,14.50
2015,06,29,16,10,14.40
2015,06,29,16,11,14.40
2015,06,29,16,12,14.40
2015,06,29,16,13,14.40
2015,06,29,16,14,14.40
2015,06,29,16,15,14.40
2015,06,29,16,16,14.40
2015,06,29,16,17,14.40
2015,06,29,16,18,14.40
2015,06,29,16,19,14.40
2015,06,29,16,20,14.50
2015,06,29,16,21,14.50
2015,06,29,16,22,14.50
2015,06,29,16,23,14.50
2015,06,29,16,24,14.60
2015,06,29,16,25,14.60
2015,06,29,16,26,14.60
2015,06,29,16,27,14.60
2015,06,29,16,28,14.60
2015,06,29,16,29,14.60
2015,06,29,16,30,14.60
2015,06,29,16,31,14.60
2015,06,29,16,32,14.60
2015,06,29,16,33,14.70
2015,06,29,16,34,14.70
2015,06,29,16,35,14.80
2015,06,29,16,36,14.80
2015,06,29,16,37,14.80
2015,06,29,16,38,14.80
2015,06,29,16,39,14.80
2015,06,29,16,40,14.90
2015,06,29,16,41,15.10
2015,06,29,16,42,15.30
2015,06,29,16,43,15.50
2015,06,29,16,44,15.50
2015,06,29,16,45,15.60
2015,06,29,16,46,15.50
2015,06,29,16,47,15.40
2015,06,29,16,48,15.40
2015,06,29,16,49,15.30
2015,06,29,16,50,15.20
2015,06,29,16,51,15.10
2015,06,29,16,52,15.00
2015,06,29,16,53,15.00
2015,06,29,16,54,15.10
2015,06,29,16,55,15.20
2015,06,29,16,56,15.40
2015,06,29,16,57,15.50
2015,06,29,16,58,15.70
2015,06,29,16,59,15.90
2015,06,29,17,00,16.10
2015,06,29,17,01,16.30
2015,06,29,17,02,16.50
2015,06,29,17,03,16.60
2015,06,29,17,04,16.90
2015,06,29,17,05,17.20
2015,06,29,17,06,17.40
2015,06,29,17,07,17.80
2015,06,29,17,08,18.60
2015,06,29,17,09,19.10
2015,06,29,17,10,19.00
2015,06,29,17,11,18.90
2015,06,29,17,12,18.30
2015,06,29,17,13,17.70
2015,06,29,17,14,17.30
2015,06,29,17,15,17.00
2015,06,29,17,16,16.80
2015,06,29,17,17,16.50
2015,06,29,17,18,16.40
2015,06,29,17,19,16.30
2015,06,29,17,20,16.10
2015,06,29,17,21,16.10
2015,06,29,17,22,16.00
2015,06,29,17,23,15.80
2015,06,29,17,24,15.60
2015,06,29,17,25,15.50
2015,06,29,17,26,15.40
2015,06,29,17,27,15.50
2015,06,29,17,28,15.60
2015,06,29,17,29,15.60
2015,06,29,17,30,15.70
2015,06,29,17,31,15.60
2015,06,29,17,32,15.50
2015,06,29,17,33,15.40
2015,06,29,17,34,15.30